This demonstration page uses our WeatherBlox Daily Observations layout. Learn more.

39.92423, -83.80882

Hourly Observations for December 1, 2017

Temp ( °F °C ) Dew Point ( °F °C ) Humidity (%) Winds ( mph kmh ) Pressure ( in mb ) Visibility ( mi km ) Precip ( " mm )
12:56 am 00:56 Clear 31 -0.6 30 -1.1 96 96 WSW 6 9 30.21 1023 9 14.48406 0 0
2:21 am 02:21 Clear with Mist and Fog 30 -1 28 -2 93 93 WSW 5 7 30.27 1025 2 3.21868 0 0
2:35 am 02:35 Clear with Mist and Fog 30 -1 28 -2 93 93 W 3 6 30.27 1025 1.25 2.011675 0 0
2:42 am 02:42 Clear with Mist and Fog 30 -1 28 -2 93 93 WSW 3 6 30.27 1025 1 1.60934 0 0
2:47 am 02:47 Clear with Mist and Fog 30 -1 28 -2 93 93 W 3 6 30.27 1025 2 3.21868 0 0
2:56 am 02:56 Clear with Mist and Fog 31 -0.6 29 -1.7 92 92 W 3 6 30.24 1024 4 6.43736 0 0
3:00 am 03:00 Clear with Freezing Fog 30 -1 28 -2 93 93 W 3 6 30.27 1025 0.5 0.80467 0 0
3:10 am 03:10 Clear with Mist and Fog 30 -1 28 -2 93 93 Calm 30.27 1025 1 1.60934 0 0
3:13 am 03:13 Clear with Mist and Fog 30 -1 28 -2 93 93 Calm 30.27 1025 3 4.82802 0 0
3:22 am 03:22 Clear with Mist and Fog 28 -2 28 -2 100 100 Calm 30.3 1026 2 3.21868 0 0
3:33 am 03:33 Clear with Mist and Fog 28 -2 27 -3 93 93 Calm 30.3 1026 1.5 2.41401 0 0
3:40 am 03:40 Clear with Mist and Fog 28 -2 27 -3 93 93 Calm 30.3 1026 0.75 1.207005 0 0
3:56 am 03:56 Clear with Mist and Fog 28 -2.2 27 -2.8 96 96 Calm 30.24 1024 0.75 1.207005 0 0
3:58 am 03:58 Clear with Mist and Fog 28 -2 27 -3 93 93 Calm 30.3 1026 1.25 2.011675 0 0
4:01 am 04:01 Clear with Mist and Fog 28 -2 27 -3 93 93 Calm 30.3 1026 0.75 1.207005 0 0
4:10 am 04:10 Clear with Freezing Fog 27 -3 27 -3 100 100 Calm 30.3 1026 0.5 0.80467 0 0
4:22 am 04:22 Clear with Freezing Fog 27 -3 27 -3 100 100 Calm 30.3 1026 0.25 0.402335 0 0
4:56 am 04:56 Clear with Freezing Fog 26 -3.3 25 -3.9 96 96 Calm 30.25 1024 0.25 0.402335 0 0
5:06 am 05:06 Mostly Cloudy with Freezing Fog 27 -3 25 -4 93 93 E 3 6 30.3 1026 0.25 0.402335 0 0
5:48 am 05:48 Cloudy with Freezing Fog 25 -4 25 -4 100 100 Calm 30.3 1026 0.5 0.80467 0 0
5:56 am 05:56 Cloudy with Freezing Fog 25 -3.9 24 -4.4 96 96 Calm 30.26 1025 0.25 0.402335 0 0
6:56 am 06:56 Mostly Cloudy with Freezing Fog 24 -4.4 23 -5 96 96 Calm 30.27 1025 0.25 0.402335 0 0
7:26 am 07:26 Mostly Cloudy with Freezing Fog 23 -5 21 -6 93 93 Calm 30.33 1027 0.5 0.80467 0 0
7:34 am 07:34 Mostly Cloudy with Freezing Fog 23 -5 21 -6 93 93 Calm 30.33 1027 0.25 0.402335 0 0
7:56 am 07:56 Mostly Cloudy with Freezing Fog 23 -5 22 -5.6 96 96 Calm 30.3 1026 0.25 0.402335 0 0
8:27 am 08:27 Mostly Cloudy with Mist and Fog 28 -2 28 -2 100 100 Calm 30.36 1028 0.75 1.207005 0 0
8:33 am 08:33 Partly Cloudy with Mist and Fog 30 -1 28 -2 93 93 Calm 30.33 1027 1.25 2.011675 0 0
8:40 am 08:40 Sunny with Mist and Fog 30 -1 30 -1 100 100 Calm 30.33 1027 3 4.82802 0 0
8:56 am 08:56 Sunny with Mist and Fog 35 1.7 33 0.6 93 93 Calm 30.31 1026 2.5 4.02335 0 0
9:10 am 09:10 Sunny with Mist and Fog 36 2 32 0 87 87 Calm 30.33 1027 3 4.82802 0 0
9:27 am 09:27 Hazy 39 4 34 1 81 81 Calm 30.33 1027 2.5 4.02335 0 0
9:34 am 09:34 Sunny with Mist and Fog 34 1 30 -1 87 87 Calm 30.33 1027 4 6.43736 0 0
9:56 am 09:56 Sunny 36 2.2 34 1.1 93 93 Calm 30.31 1026 7 11.26538 0 0
10:56 am 10:56 Sunny 43 6.1 37 2.8 80 80 E 5 7 30.3 1026 10 16.0934 0 0
11:56 am 11:56 Sunny 47 8.3 36 2.2 66 66 ESE 3 6 30.29 1026 10 16.0934 0 0
12:56 pm 12:56 Sunny 48 8.9 33 0.6 56 56 SSE 6 9 30.27 1025 10 16.0934 0 0
1:56 pm 13:56 Sunny 50 10 33 0.6 52 52 SSW 5 7 30.26 1025 10 16.0934 0 0
2:56 pm 14:56 Sunny 50 10 33 0.6 52 52 Calm 30.25 1024 10 16.0934 0 0
3:56 pm 15:56 Sunny 49 9.4 32 0 52 52 Calm 30.26 1025 10 16.0934 0 0
4:56 pm 16:56 Sunny 47 8.3 31 -0.6 54 54 Calm 30.25 1024 10 16.0934 0 0
5:56 pm 17:56 Clear 40 4.4 31 -0.6 70 70 Calm 30.26 1025 10 16.0934 0 0
6:56 pm 18:56 Clear 37 2.8 31 -0.6 79 79 Calm 30.27 1025 10 16.0934 0 0
7:56 pm 19:56 Clear 34 1.1 30 -1.1 85 85 ESE 3 6 30.27 1025 10 16.0934 0 0
8:56 pm 20:56 Clear 33 0.6 30 -1.1 89 89 SE 5 7 30.26 1025 10 16.0934 0 0
9:56 pm 21:56 Clear 30 -1.1 29 -1.7 96 96 ESE 5 7 30.26 1025 10 16.0934 0 0
10:56 pm 22:56 Clear 28 -2.2 25 -3.9 88 88 E 3 6 30.25 1025 10 16.0934 0 0
11:56 pm 23:56 Clear 28 -2.2 26 -3.3 92 92 ESE 6 9 30.24 1024 10 16.0934 0 0

Powered by AerisWeather